Home > Weather > Zweibrücken > Past weeks

Flag for Germany Weather for the Past 2 Weeks in Zweibrücken, Rhineland-Palatinate, Germany

Now
36 °F

Partly sunny.


Feels Like: 29 °F
Forecast: 31 / 40 °F
Wind: 9 mph from Southwest

Location: Saarbruecken / Ensheim

Current Time: Feb 11, 2016 at 3:16:20 PM

Latest Report: Feb 11, 2016 at 2:20 PM


Visibility: N/A

Pressure: 29.71 "Hg

Humidity: 93%

Dew point: 34 °F

Location of ZweibrückenLocation

Historic Weather in Zweibrücken — Graph

°F

Zweibrücken Temperature Yesterday

Maximum temperature yesterday: 37 °F (at 3:50 PM)
Minimum temperature yesterday: 34 °F (at 1:20 AM)
Average temperature yesterday: 36 °F

High & Low Weather Summary for the Past Weeks

 TemperatureHumidityPressure
High54 °F (Feb 1, 1:20 AM)100% (Jan 28, 9:20 AM)30.42 "Hg (Jan 28, 9:20 AM)
Low34 °F (Feb 3, 8:50 PM)57% (Jan 29, 4:20 PM)29.09 "Hg (Feb 9, 3:20 PM)
Average43 °F86%29.97 "Hg
* Reported Jan 27 2:20 PM — Feb 11 2:20 PM, Zweibrücken, Weather by CustomWeather, © 2016

Note: Actual official high and low records may vary slightly from our data, if they occured in-between our weather recording intervals... More about our weather records

Advertising

Zweibrücken Weather History for the Previous 24 Hours

 ConditionsComfort  
Time TempWeatherWind HumidityBarometerVisibility
2:20 PM
Thu, Feb 11
36 °FPartly sunny.9 mph93%29.71 "HgN/A
1:50 PM36 °FPartly sunny.10 mph93%29.71 "HgN/A
1:20 PM36 °FPartly sunny.12 mph93%29.74 "HgN/A
12:50 PM36 °FPartly sunny.10 mph93%29.74 "Hg5 mi
12:20 PM36 °FPartly sunny.13 mph93%29.74 "Hg6 mi
11:50 AM36 °FPartly sunny.10 mph93%29.74 "HgN/A
11:20 AM36 °FPartly sunny.8 mph93%29.74 "HgN/A
10:50 AM36 °FPartly sunny.9 mph93%29.74 "HgN/A
10:20 AM36 °FPartly sunny.9 mph93%29.74 "HgN/A
9:50 AM36 °FLight rain. Partly sunny.10 mph93%29.74 "HgN/A
9:20 AM36 °FLight rain. Partly sunny.9 mph93%29.74 "HgN/A
8:50 AM36 °FLight rain. Partly sunny.9 mph93%29.71 "Hg5 mi
8:20 AM36 °FLight rain. Partly sunny.8 mph93%29.71 "Hg4 mi
7:50 AM36 °FLight rain. Partly sunny.9 mph87%29.71 "Hg5 mi
7:20 AM36 °FPassing clouds.9 mph93%29.71 "HgN/A
6:50 AM36 °FPassing clouds.7 mph93%29.71 "HgN/A
6:20 AM36 °FPassing clouds.8 mph93%29.71 "HgN/A
5:50 AM36 °FLight rain. Passing clouds.10 mph93%29.71 "HgN/A
5:20 AM36 °FLight rain. Passing clouds.12 mph93%29.68 "HgN/A
4:20 AM37 °FLight rain. Passing clouds.14 mph87%29.68 "HgN/A
3:50 AM37 °FPassing clouds.13 mph93%29.68 "HgN/A
3:20 AM37 °FPassing clouds.10 mph93%29.68 "HgN/A
2:50 AM37 °FOvercast.14 mph87%29.68 "Hg6 mi
2:20 AM37 °FOvercast.13 mph93%29.68 "HgN/A
1:50 AM37 °FOvercast.12 mph93%29.65 "HgN/A
1:20 AM37 °FOvercast.12 mph93%29.65 "HgN/A
12:50 AM37 °FOvercast.12 mph93%29.65 "HgN/A
12:20 AM36 °FPassing clouds.10 mph93%29.65 "HgN/A
11:50 PM
Wed, Feb 10
36 °FPassing clouds.13 mph93%29.62 "HgN/A
10:50 PM36 °FPassing clouds.12 mph93%29.62 "HgN/A
10:20 PM36 °FLight rain. Partly cloudy.15 mph93%29.62 "HgN/A
9:50 PM37 °FLight rain. Passing clouds.16 mph87%29.59 "HgN/A
9:20 PM37 °FLight rain. Passing clouds.16 mph87%29.59 "HgN/A
8:50 PM36 °FLight rain. Partly cloudy.16 mph93%29.59 "HgN/A
8:20 PM37 °FLight rain. Passing clouds.17 mph87%29.56 "HgN/A
7:50 PM37 °FLight rain. Passing clouds.16 mph87%29.56 "HgN/A
7:20 PM37 °FLight rain. Partly cloudy.15 mph93%29.56 "HgN/A
6:50 PM36 °FLight rain. Partly cloudy.14 mph100%29.56 "HgN/A
6:20 PM36 °FLight rain. Partly cloudy.13 mph100%29.53 "HgN/A
5:50 PM36 °FLight rain. Passing clouds.16 mph93%29.53 "Hg5 mi
5:20 PM36 °FDrizzle. Partly sunny.15 mph93%29.50 "HgN/A
4:50 PM36 °FPartly sunny.10 mph93%29.50 "HgN/A
4:20 PM37 °FDrizzle. Partly sunny.18 mph87%29.50 "Hg4 mi
3:50 PM37 °FDrizzle. Partly sunny.12 mph93%29.47 "Hg5 mi
3:20 PM36 °FDrizzle. Partly sunny.18 mph93%29.47 "Hg4 mi
Weather by CustomWeather, © 2016

See weather overviewHow to use our weather pages